Flag for Belgium Weather past 2 weeks in Leuven, Belgium

Now
54 °F

Passing clouds.


Feels Like: 51 °F
Forecast: 52 / 58 °F
Wind: 8 mph from Southwest

Location: Brussels National Airport

Current Time: Sep 5, 2015 at 8:40:06 AM

Latest Report: Sep 5, 2015 at 7:50 AM


Visibility: N/A

Pressure: 30.04 "Hg

Humidity: 88%

Dew point: 50 °F

Location of LeuvenLocation

Historic Weather in Leuven — Graph

°F

Leuven temperature yesterday

Maximum temperature yesterday: 59 °F (at 12:20 PM)
Minimum temperature yesterday: 52 °F (at 5:20 AM)
Average temperature yesterday: 56 °F

Past Weeks' High & Low Weather Summary

 TemperatureHumidityPressure
High86 °F (Aug 30, 2:50 PM)94% (Aug 21, 7:20 AM)30.24 "Hg (Aug 21, 7:20 AM)
Low50 °F (Aug 29, 7:20 AM)32% (Aug 22, 3:50 PM)29.47 "Hg (Aug 24, 2:20 PM)
Average64 °F75%29.93 "Hg
* Reported Aug 21 7:20 AM — Sep 5 7:20 AM, Leuven, Weather by CustomWeather, © 2015

Note: Actual official high and low records may vary slightly from our data, if they occured in-between our weather recording intervals... More about our weather records

Advertising

Leuven weather history for previous 24 hours

 ConditionsComfort  
Time TempWeatherWind HumidityBarometerVisibility
7:20 AM
Sat, Sep 5
54 °FPassing clouds.8 mph88%30.01 "HgN/A
6:50 AM54 °FPassing clouds.7 mph88%30.01 "HgN/A
6:20 AM54 °FPassing clouds.7 mph88%30.01 "HgN/A
5:50 AM54 °FPartly cloudy.8 mph88%30.01 "HgN/A
5:20 AM54 °FPassing clouds.7 mph88%30.01 "HgN/A
4:50 AM54 °FPassing clouds.9 mph88%30.01 "HgN/A
4:20 AM54 °FSprinkles. Partly cloudy.10 mph88%30.01 "HgN/A
3:50 AM54 °FRain showers. Partly cloudy.10 mph88%30.01 "Hg4 mi
3:20 AM54 °FLight rain. Passing clouds.10 mph88%30.01 "Hg5 mi
2:50 AM54 °FLight rain. Passing clouds.10 mph88%30.01 "HgN/A
2:20 AM54 °FLight rain. Passing clouds.12 mph82%30.01 "HgN/A
1:50 AM55 °FLight rain. Passing clouds.12 mph77%30.01 "HgN/A
1:20 AM55 °FPassing clouds.14 mph77%30.01 "HgN/A
12:50 AM55 °FPassing clouds.13 mph77%30.01 "HgN/A
12:20 AM55 °FPassing clouds.10 mph77%30.01 "HgN/A
11:20 PM
Fri, Sep 4
55 °FPassing clouds.13 mph77%30.01 "HgN/A
10:50 PM55 °FPassing clouds.12 mph77%30.01 "HgN/A
10:20 PM55 °FPassing clouds.12 mph77%30.01 "HgN/A
9:50 PM55 °FPassing clouds.12 mph77%30.01 "HgN/A
9:20 PM55 °FPassing clouds.13 mph72%30.01 "HgN/A
8:50 PM55 °FSunny.12 mph77%30.01 "Hg10 mi
8:20 PM57 °FPassing clouds.9 mph67%30.01 "HgN/A
7:50 PM57 °FPassing clouds.13 mph72%30.01 "HgN/A
7:20 PM57 °FPassing clouds.13 mph72%29.98 "HgN/A
6:50 PM57 °FPassing clouds.16 mph67%29.98 "HgN/A
6:20 PM59 °FScattered clouds.13 mph68%29.98 "HgN/A
5:50 PM59 °FScattered clouds.13 mph68%29.98 "HgN/A
5:20 PM57 °FScattered clouds.9 mph72%29.98 "HgN/A
4:50 PM59 °FPassing clouds.12 mph68%29.98 "HgN/A
4:20 PM59 °FPassing clouds.12 mph68%29.98 "HgN/A
3:50 PM57 °FPassing clouds.12 mph72%30.01 "HgN/A
3:20 PM57 °FPartly sunny.13 mph67%30.01 "HgN/A
2:50 PM55 °FPartly sunny.13 mph72%30.01 "HgN/A
2:20 PM59 °FScattered clouds.13 mph63%30.01 "HgN/A
1:50 PM59 °FPassing clouds.13 mph68%30.01 "HgN/A
1:20 PM57 °FScattered clouds.14 mph67%30.01 "HgN/A
12:50 PM59 °FSprinkles. Broken clouds.14 mph63%30.01 "HgN/A
12:20 PM59 °FBroken clouds.13 mph68%30.01 "HgN/A
11:50 AM57 °FScattered clouds.15 mph67%30.01 "HgN/A
11:20 AM57 °FScattered clouds.13 mph72%30.01 "HgN/A
10:50 AM57 °FScattered clouds.12 mph72%30.01 "HgN/A
10:20 AM57 °FPassing clouds.10 mph72%29.98 "HgN/A
9:50 AM55 °FSunny.10 mph82%29.98 "Hg10 mi
9:20 AM55 °FSunny.8 mph77%29.98 "Hg10 mi
8:50 AM54 °FSunny.8 mph77%29.98 "Hg10 mi
8:20 AM52 °FSunny.7 mph88%29.98 "Hg10 mi
Weather by CustomWeather, © 2015

See weather overviewHow to use our weather pages